Time,TemperatureF,DewpointF,PressureIn,WindDirection,WindDirectionDegrees,WindSpeedMPH,WindSpeedGustMPH,Humidity,HourlyPrecipIn,Conditions,Clouds,dailyrainin,SolarRadiationWatts/m^2,SoftwareType,DateUTC
2013-02-17 00:01:00,40.0,31.0,-100.00,SW,235,6.0,17.0,69,0.00,,,0.00,0.000000,,2013-02-17 07:01:00,
2013-02-17 00:11:00,40.0,31.0,-100.00,SW,235,6.0,17.0,69,0.00,,,0.00,0.000000,,2013-02-17 07:11:00,
2013-02-17 00:21:00,40.0,31.0,-100.00,SW,235,6.0,17.0,69,0.00,,,0.00,0.000000,,2013-02-17 07:21:00,
2013-02-17 00:30:00,36.0,26.0,-100.00,NNW,345,9.0,19.0,68,0.00,,,0.00,0.000000,,2013-02-17 07:30:00,
2013-02-17 00:52:00,36.0,26.0,-100.00,NNW,345,9.0,19.0,68,0.00,,,0.00,0.000000,,2013-02-17 07:52:00,
2013-02-17 01:01:00,36.0,26.0,-100.00,NNW,345,9.0,19.0,68,0.00,,,0.00,0.000000,,2013-02-17 08:01:00,
2013-02-17 01:11:00,36.0,26.0,-100.00,NNW,345,9.0,19.0,68,0.00,,,0.00,0.000000,,2013-02-17 08:11:00,
2013-02-17 01:21:00,36.0,26.0,-100.00,NNW,345,9.0,19.0,68,0.00,,,0.00,0.000000,,2013-02-17 08:21:00,
2013-02-17 01:30:00,35.0,32.0,-100.00,WNW,293,8.0,10.0,89,0.00,,,0.00,0.000000,,2013-02-17 08:30:00,
2013-02-17 01:52:00,35.0,32.0,-100.00,WNW,293,8.0,10.0,89,0.00,,,0.00,0.000000,,2013-02-17 08:52:00,
2013-02-17 02:01:00,35.0,32.0,-100.00,WNW,293,8.0,10.0,89,0.00,,,0.00,0.000000,,2013-02-17 09:01:00,
2013-02-17 02:11:00,35.0,32.0,-100.00,WNW,293,8.0,10.0,89,0.00,,,0.00,0.000000,,2013-02-17 09:11:00,
2013-02-17 02:21:00,35.0,32.0,-100.00,WNW,293,8.0,10.0,89,0.00,,,0.00,0.000000,,2013-02-17 09:21:00,
2013-02-17 02:30:00,36.0,29.0,-100.00,West,274,6.0,13.0,77,0.00,,,0.00,0.000000,,2013-02-17 09:30:00,
2013-02-17 02:52:00,36.0,29.0,-100.00,West,274,6.0,13.0,77,0.00,,,0.00,0.000000,,2013-02-17 09:52:00,
2013-02-17 03:01:00,36.0,29.0,-100.00,West,274,6.0,13.0,77,0.00,,,0.00,0.000000,,2013-02-17 10:01:00,
2013-02-17 03:11:00,36.0,29.0,-100.00,West,274,6.0,13.0,77,0.00,,,0.00,0.000000,,2013-02-17 10:11:00,
2013-02-17 03:21:00,36.0,29.0,-100.00,West,274,6.0,13.0,77,0.00,,,0.00,0.000000,,2013-02-17 10:21:00,
2013-02-17 03:30:00,37.0,28.0,-100.00,WSW,253,4.0,10.0,71,0.00,,,0.00,0.000000,,2013-02-17 10:30:00,
2013-02-17 03:52:00,37.0,28.0,-100.00,WSW,253,4.0,10.0,71,0.00,,,0.00,0.000000,,2013-02-17 10:52:00,
2013-02-17 04:01:00,37.0,28.0,-100.00,WSW,253,4.0,10.0,71,0.00,,,0.00,0.000000,,2013-02-17 11:01:00,
2013-02-17 04:11:00,37.0,28.0,-100.00,WSW,253,4.0,10.0,71,0.00,,,0.00,0.000000,,2013-02-17 11:11:00,
2013-02-17 04:21:00,37.0,28.0,-100.00,WSW,253,4.0,10.0,71,0.00,,,0.00,0.000000,,2013-02-17 11:21:00,
2013-02-17 04:30:00,37.0,23.0,-100.00,WSW,242,8.0,15.0,57,0.00,,,0.00,0.000000,,2013-02-17 11:30:00,
2013-02-17 04:52:00,37.0,23.0,-100.00,WSW,242,8.0,15.0,57,0.00,,,0.00,0.000000,,2013-02-17 11:52:00,
2013-02-17 05:03:00,37.0,23.0,-100.00,WSW,242,8.0,15.0,57,0.00,,,0.00,0.000000,,2013-02-17 12:03:00,
2013-02-17 05:11:00,37.0,23.0,-100.00,WSW,242,8.0,15.0,57,0.00,,,0.00,0.000000,,2013-02-17 12:11:00,
2013-02-17 05:22:00,37.0,23.0,-100.00,WSW,242,8.0,15.0,57,0.00,,,0.00,0.000000,,2013-02-17 12:22:00,
2013-02-17 05:30:00,36.0,20.0,-100.00,NW,311,10.0,17.0,52,0.00,,,0.00,0.000000,,2013-02-17 12:30:00,
2013-02-17 05:52:00,36.0,20.0,-100.00,NW,311,10.0,17.0,52,0.00,,,0.00,0.000000,,2013-02-17 12:52:00,
2013-02-17 06:02:00,36.0,20.0,-100.00,NW,311,10.0,17.0,52,0.00,,,0.00,0.000000,,2013-02-17 13:02:00,
2013-02-17 06:11:00,36.0,20.0,-100.00,NW,311,10.0,17.0,52,0.00,,,0.00,0.000000,,2013-02-17 13:11:00,
2013-02-17 06:21:00,36.0,20.0,-100.00,NW,311,10.0,17.0,52,0.00,,,0.00,0.000000,,2013-02-17 13:21:00,
2013-02-17 06:30:00,34.0,20.0,-100.00,WNW,288,5.0,14.0,56,0.00,,,0.00,0.000000,,2013-02-17 13:30:00,
2013-02-17 06:52:00,34.0,20.0,-100.00,WNW,288,5.0,14.0,56,0.00,,,0.00,0.000000,,2013-02-17 13:52:00,
2013-02-17 07:01:00,34.0,20.0,-100.00,WNW,288,5.0,14.0,56,0.00,,,0.00,0.000000,,2013-02-17 14:01:00,
2013-02-17 07:11:00,34.0,20.0,-100.00,WNW,288,5.0,14.0,56,0.00,,,0.00,0.000000,,2013-02-17 14:11:00,
2013-02-17 07:21:00,34.0,20.0,-100.00,WNW,288,5.0,14.0,56,0.00,,,0.00,0.000000,,2013-02-17 14:21:00,
2013-02-17 07:30:00,35.0,21.0,-100.00,WSW,253,7.0,15.0,56,0.00,,,-99.99,0.000000,,2013-02-17 14:30:00,
2013-02-17 07:53:00,35.0,21.0,-100.00,WSW,253,7.0,15.0,56,0.00,,,-99.99,0.000000,,2013-02-17 14:53:00,
2013-02-17 08:01:00,35.0,21.0,-100.00,WSW,253,7.0,15.0,56,0.00,,,-99.99,0.000000,,2013-02-17 15:01:00,
2013-02-17 08:11:00,35.0,21.0,-100.00,WSW,253,7.0,15.0,56,0.00,,,-99.99,0.000000,,2013-02-17 15:11:00,
2013-02-17 08:21:00,35.0,21.0,-100.00,WSW,253,7.0,15.0,56,0.00,,,-99.99,0.000000,,2013-02-17 15:21:00,
2013-02-17 08:30:00,35.0,22.0,-100.00,West,276,3.0,10.0,58,0.00,,,0.00,16.000000,,2013-02-17 15:30:00,
2013-02-17 08:52:00,35.0,22.0,-100.00,West,276,3.0,10.0,58,0.00,,,0.00,16.000000,,2013-02-17 15:52:00,
2013-02-17 09:01:00,35.0,22.0,-100.00,West,276,3.0,10.0,58,0.00,,,0.00,16.000000,,2013-02-17 16:01:00,
2013-02-17 09:11:00,35.0,22.0,-100.00,West,276,3.0,10.0,58,0.00,,,0.00,16.000000,,2013-02-17 16:11:00,
2013-02-17 09:21:00,35.0,22.0,-100.00,West,276,3.0,10.0,58,0.00,,,0.00,16.000000,,2013-02-17 16:21:00,
2013-02-17 09:30:00,34.0,20.0,-100.00,WNW,302,4.0,11.0,56,0.00,,,0.00,41.000000,,2013-02-17 16:30:00,
2013-02-17 09:52:00,34.0,20.0,-100.00,WNW,302,4.0,11.0,56,0.00,,,0.00,41.000000,,2013-02-17 16:52:00,
2013-02-17 10:02:00,34.0,20.0,-100.00,WNW,302,4.0,11.0,56,0.00,,,0.00,41.000000,,2013-02-17 17:02:00,
2013-02-17 10:11:00,34.0,20.0,-100.00,WNW,302,4.0,11.0,56,0.00,,,0.00,41.000000,,2013-02-17 17:11:00,
2013-02-17 10:21:00,34.0,20.0,-100.00,WNW,302,4.0,11.0,56,0.00,,,0.00,41.000000,,2013-02-17 17:21:00,
2013-02-17 10:30:00,33.0,26.0,-100.00,WSW,247,4.0,8.0,75,0.00,,,0.00,93.000000,,2013-02-17 17:30:00,
2013-02-17 10:52:00,33.0,26.0,-100.00,WSW,247,4.0,8.0,75,0.00,,,0.00,93.000000,,2013-02-17 17:52:00,
2013-02-17 11:01:00,33.0,26.0,-100.00,WSW,247,4.0,8.0,75,0.00,,,0.00,93.000000,,2013-02-17 18:01:00,
2013-02-17 11:11:00,33.0,26.0,-100.00,WSW,247,4.0,8.0,75,0.00,,,0.00,93.000000,,2013-02-17 18:11:00,
2013-02-17 11:21:00,33.0,26.0,-100.00,WSW,247,4.0,8.0,75,0.00,,,0.00,93.000000,,2013-02-17 18:21:00,
2013-02-17 11:30:00,35.0,29.0,-100.00,NW,310,2.0,4.0,79,0.00,,,0.00,154.000000,,2013-02-17 18:30:00,
2013-02-17 11:52:00,35.0,29.0,-100.00,NW,310,2.0,4.0,79,0.00,,,0.00,154.000000,,2013-02-17 18:52:00,
2013-02-17 12:01:00,35.0,29.0,-100.00,NW,310,2.0,4.0,79,0.00,,,0.00,154.000000,,2013-02-17 19:01:00,
2013-02-17 12:11:00,35.0,29.0,-100.00,NW,310,2.0,4.0,79,0.00,,,0.00,154.000000,,2013-02-17 19:11:00,
2013-02-17 12:21:00,35.0,29.0,-100.00,NW,310,2.0,4.0,79,0.00,,,0.00,154.000000,,2013-02-17 19:21:00,
2013-02-17 12:30:00,38.0,27.0,-100.00,WNW,291,2.0,6.0,65,0.00,,,0.00,323.000000,,2013-02-17 19:30:00,
2013-02-17 12:52:00,38.0,27.0,-100.00,WNW,291,2.0,6.0,65,0.00,,,0.00,323.000000,,2013-02-17 19:52:00,
2013-02-17 13:01:00,38.0,27.0,-100.00,WNW,291,2.0,6.0,65,0.00,,,0.00,323.000000,,2013-02-17 20:01:00,
2013-02-17 13:11:00,38.0,27.0,-100.00,WNW,291,2.0,6.0,65,0.00,,,0.00,323.000000,,2013-02-17 20:11:00,
2013-02-17 13:21:00,38.0,27.0,-100.00,WNW,291,2.0,6.0,65,0.00,,,0.00,323.000000,,2013-02-17 20:21:00,
2013-02-17 13:30:00,38.0,25.0,-100.00,West,274,4.0,6.0,59,0.00,,,0.00,227.000000,,2013-02-17 20:30:00,
2013-02-17 13:52:00,38.0,25.0,-100.00,West,274,4.0,6.0,59,0.00,,,0.00,227.000000,,2013-02-17 20:52:00,
2013-02-17 14:01:00,38.0,25.0,-100.00,West,274,4.0,6.0,59,0.00,,,0.00,227.000000,,2013-02-17 21:01:00,
2013-02-17 14:11:00,38.0,25.0,-100.00,West,274,4.0,6.0,59,0.00,,,0.00,227.000000,,2013-02-17 21:11:00,
2013-02-17 14:21:00,38.0,25.0,-100.00,West,274,4.0,6.0,59,0.00,,,0.00,227.000000,,2013-02-17 21:21:00,
2013-02-17 14:30:00,35.0,30.0,-100.00,East,93,7.0,13.0,81,0.00,,,0.00,186.000000,,2013-02-17 21:30:00,
2013-02-17 14:53:00,35.0,30.0,-100.00,East,93,7.0,13.0,81,0.00,,,0.00,186.000000,,2013-02-17 21:53:00,
2013-02-17 15:01:00,35.0,30.0,-100.00,East,93,7.0,13.0,81,0.00,,,0.00,186.000000,,2013-02-17 22:01:00,
2013-02-17 15:11:00,35.0,30.0,-100.00,East,93,7.0,13.0,81,0.00,,,0.00,186.000000,,2013-02-17 22:11:00,
2013-02-17 15:21:00,35.0,30.0,-100.00,East,93,7.0,13.0,81,0.00,,,0.00,186.000000,,2013-02-17 22:21:00,
2013-02-17 15:30:00,32.0,29.0,-100.00,East,94,4.0,12.0,90,0.00,,,0.00,57.000000,,2013-02-17 22:30:00,
2013-02-17 15:52:00,32.0,29.0,-100.00,East,94,4.0,12.0,90,0.00,,,0.00,57.000000,,2013-02-17 22:52:00,
2013-02-17 16:02:00,32.0,29.0,-100.00,East,94,4.0,12.0,90,0.00,,,0.00,57.000000,,2013-02-17 23:02:00,
2013-02-17 16:11:00,32.0,29.0,-100.00,East,94,4.0,12.0,90,0.00,,,0.00,57.000000,,2013-02-17 23:11:00,
2013-02-17 16:21:00,32.0,29.0,-100.00,East,94,4.0,12.0,90,0.00,,,0.00,57.000000,,2013-02-17 23:21:00,
2013-02-17 16:30:00,32.0,30.0,-100.00,NNE,29,1.0,8.0,93,0.00,,,0.00,34.000000,,2013-02-17 23:30:00,
2013-02-17 16:52:00,32.0,30.0,-100.00,NNE,29,1.0,8.0,93,0.00,,,0.00,34.000000,,2013-02-17 23:52:00,
2013-02-17 17:01:00,32.0,30.0,-100.00,NNE,29,1.0,8.0,93,0.00,,,0.00,34.000000,,2013-02-18 00:01:00,
2013-02-17 17:11:00,32.0,30.0,-100.00,NNE,29,1.0,8.0,93,0.00,,,0.00,34.000000,,2013-02-18 00:11:00,
2013-02-17 17:22:00,32.0,30.0,-100.00,NNE,29,1.0,8.0,93,0.00,,,0.00,34.000000,,2013-02-18 00:22:00,
2013-02-17 17:30:00,31.0,28.0,-100.00,WNW,285,3.0,8.0,90,0.00,,,0.00,13.000000,,2013-02-18 00:30:00,
2013-02-17 17:52:00,31.0,28.0,-100.00,WNW,285,3.0,8.0,90,0.00,,,0.00,13.000000,,2013-02-18 00:52:00,
2013-02-17 18:01:00,31.0,28.0,-100.00,WNW,285,3.0,8.0,90,0.00,,,0.00,13.000000,,2013-02-18 01:01:00,
2013-02-17 18:11:00,31.0,28.0,-100.00,WNW,285,3.0,8.0,90,0.00,,,0.00,13.000000,,2013-02-18 01:11:00,
2013-02-17 18:21:00,31.0,28.0,-100.00,WNW,285,3.0,8.0,90,0.00,,,0.00,13.000000,,2013-02-18 01:21:00,
2013-02-17 18:30:00,30.0,28.0,-100.00,West,263,5.0,7.0,94,0.00,,,0.00,1.000000,,2013-02-18 01:30:00,
2013-02-17 18:52:00,30.0,28.0,-100.00,West,263,5.0,7.0,94,0.00,,,0.00,1.000000,,2013-02-18 01:52:00,
2013-02-17 19:01:00,30.0,28.0,-100.00,West,263,5.0,7.0,94,0.00,,,0.00,1.000000,,2013-02-18 02:01:00,
2013-02-17 19:11:00,30.0,28.0,-100.00,West,263,5.0,7.0,94,0.00,,,0.00,1.000000,,2013-02-18 02:11:00,
2013-02-17 19:21:00,30.0,28.0,-100.00,West,263,5.0,7.0,94,0.00,,,0.00,1.000000,,2013-02-18 02:21:00,
2013-02-17 19:30:00,30.0,29.0,-100.00,West,279,3.0,7.0,95,0.00,,,0.00,0.000000,,2013-02-18 02:30:00,
2013-02-17 19:52:00,30.0,29.0,-100.00,West,279,3.0,7.0,95,0.00,,,0.00,0.000000,,2013-02-18 02:52:00,
2013-02-17 20:01:00,30.0,29.0,-100.00,West,279,3.0,7.0,95,0.00,,,0.00,0.000000,,2013-02-18 03:01:00,
2013-02-17 20:11:00,30.0,29.0,-100.00,West,279,3.0,7.0,95,0.00,,,0.00,0.000000,,2013-02-18 03:11:00,
2013-02-17 20:21:00,30.0,29.0,-100.00,West,279,3.0,7.0,95,0.00,,,0.00,0.000000,,2013-02-18 03:21:00,
2013-02-17 20:30:00,29.0,28.0,-100.00,East,85,3.0,7.0,95,0.00,,,0.00,0.000000,,2013-02-18 03:30:00,
2013-02-17 20:52:00,29.0,28.0,-100.00,East,85,3.0,7.0,95,0.00,,,0.00,0.000000,,2013-02-18 03:52:00,
2013-02-17 21:01:00,29.0,28.0,-100.00,East,85,3.0,7.0,95,0.00,,,0.00,0.000000,,2013-02-18 04:01:00,
2013-02-17 21:11:00,29.0,28.0,-100.00,East,85,3.0,7.0,95,0.00,,,0.00,0.000000,,2013-02-18 04:11:00,
2013-02-17 21:21:00,29.0,28.0,-100.00,East,85,3.0,7.0,95,0.00,,,0.00,0.000000,,2013-02-18 04:21:00,
2013-02-17 21:30:00,28.0,27.0,-100.00,East,81,6.0,12.0,95,0.00,,,0.00,0.000000,,2013-02-18 04:30:00,
2013-02-17 21:52:00,28.0,27.0,-100.00,East,81,6.0,12.0,95,0.00,,,0.00,0.000000,,2013-02-18 04:52:00,
2013-02-17 22:01:00,28.0,27.0,-100.00,East,81,6.0,12.0,95,0.00,,,0.00,0.000000,,2013-02-18 05:01:00,
2013-02-17 22:11:00,28.0,27.0,-100.00,East,81,6.0,12.0,95,0.00,,,0.00,0.000000,,2013-02-18 05:11:00,
2013-02-17 22:21:00,28.0,27.0,-100.00,East,81,6.0,12.0,95,0.00,,,0.00,0.000000,,2013-02-18 05:21:00,
2013-02-17 22:30:00,28.0,27.0,-100.00,East,88,3.0,10.0,94,0.00,,,0.00,0.000000,,2013-02-18 05:30:00,
2013-02-17 22:52:00,28.0,27.0,-100.00,East,88,3.0,10.0,94,0.00,,,0.00,0.000000,,2013-02-18 05:52:00,
2013-02-17 23:02:00,28.0,27.0,-100.00,East,88,3.0,10.0,94,0.00,,,0.00,0.000000,,2013-02-18 06:02:00,
2013-02-17 23:11:00,28.0,27.0,-100.00,East,88,3.0,10.0,94,0.00,,,0.00,0.000000,,2013-02-18 06:11:00,
2013-02-17 23:21:00,28.0,27.0,-100.00,East,88,3.0,10.0,94,0.00,,,0.00,0.000000,,2013-02-18 06:21:00,
2013-02-17 23:30:00,27.0,26.0,-100.00,ENE,72,3.0,7.0,94,0.00,,,0.00,0.000000,,2013-02-18 06:30:00,
2013-02-17 23:52:00,27.0,26.0,-100.00,ENE,72,3.0,7.0,94,0.00,,,0.00,0.000000,,2013-02-18 06:52:00,